Date,TemperatureHighF,TemperatureAvgF,TemperatureLowF,DewpointHighF,DewpointAvgF,DewpointLowF,HumidityHigh,HumidityAvg,HumidityLow,PressureMaxIn,PressureMinIn,WindSpeedMaxMPH,WindSpeedAvgMPH,GustSpeedMaxMPH,PrecipitationSumIn
2013-10-1,78,66,57,65,59,54,93,80,55,30.05,29.97,5,0,5,0.00
2013-10-2,83,69,59,69,63,56,92,81,59,30.08,29.99,4,0,6,0.00
2013-10-3,77,70,67,70,66,64,92,86,71,30.06,29.96,3,0,5,0.35
2013-10-4,82,71,64,70,65,61,92,81,62,30.05,29.97,4,0,5,0.01
2013-10-5,81,71,65,71,66,62,91,85,69,30.01,29.90,6,0,6,0.49
2013-10-6,73,64,53,67,61,50,93,89,80,29.91,29.66,10,0,11,1.92
2013-10-7,62,53,45,52,46,42,91,80,56,30.14,29.77,7,0,9,0.00
2013-10-8,69,53,42,50,44,38,92,74,40,30.27,30.14,9,0,9,0.01
2013-10-9,74,56,46,53,46,42,88,71,35,30.23,30.13,9,0,9,0.00
2013-10-10,75,56,43,51,45,40,89,70,34,30.17,30.05,4,0,4,0.00
2013-10-11,79,60,47,54,49,44,90,70,35,30.08,29.98,5,0,6,0.00
2013-10-12,76,62,51,63,55,47,93,79,59,30.09,29.99,5,0,5,0.00
2013-10-13,72,61,52,61,54,46,93,79,56,30.26,30.08,4,0,7,0.00
2013-10-14,72,54,46,53,45,41,85,73,42,30.31,30.19,5,0,5,0.00
2013-10-16,66,60,49,60,52,44,85,76,65,29.93,29.84,6,0,6,0.00
2013-10-17,55,48,42,50,44,39,91,85,77,29.96,29.84,6,0,6,0.06
2013-10-18,64,46,42,50,42,39,91,84,49,30.02,29.91,10,0,13,0.09
2013-10-19,51,46,40,45,42,37,89,84,77,29.99,29.80,6,0,6,0.15
2013-10-20,62,48,37,45,40,34,89,74,51,30.03,29.96,10,0,10,0.00
2013-10-21,67,54,42,48,42,37,82,66,41,30.00,29.86,11,0,11,0.01
2013-10-22,52,44,33,46,33,25,87,67,36,30.03,29.84,6,0,6,0.01
2013-10-23,45,41,37,38,36,32,89,82,72,30.02,29.73,7,0,8,0.01
2013-10-24,44,39,36,36,34,31,88,80,63,30.24,30.02,8,0,11,0.03
2013-10-25,50,38,30,35,30,26,93,74,47,30.42,30.24,6,0,6,0.00
2013-10-26,51,41,32,39,31,26,79,69,55,30.27,29.92,10,0,10,0.00
2013-10-27,57,44,33,40,34,30,91,72,42,30.09,30.02,5,0,5,0.00
2013-10-28,64,45,32,42,34,28,91,70,33,30.28,30.07,6,0,6,0.00
2013-10-29,59,48,36,46,40,33,93,75,56,30.35,30.19,4,0,4,0.00
2013-10-30,62,57,51,60,54,45,92,89,76,30.19,29.96,4,0,4,0.08
2013-10-31,64,62,60,61,57,55,91,84,75,29.96,29.30,14,2,14,0.73